Погода в Асбесте

Россия / Свердловская область     57°00′18″N   61°27′29″E
темп.,
°C
ветер,
м/с
пор.,
м/с
влажн.,
%
обл.,
%
осадки,
мм/ч
давл.,
гПа
погр.,
м
7 июля, чт
чт723:00+13ссз227698 0.0 101324
02:00+12ссз2281100 0.0 101452
05:00+11ссз278633 0.0 1015166
08:00+16с35675 0.0 1016374
11:00+21ссв34515 0.0 10161097
14:00+24ссв234615 0.0 10161729
17:00+25с334425 0.0 10161886
20:00+21ссз246926 0.0 1017102
8 июля, пт
пт823:00+16ссв118153 0.0 101711
02:00+14зсз11875 0.0 101811
05:00+13зсз118881 0.0 101814
08:00+20зсз11651 0.0 1018232
11:00+25ююв11455 0.0 10181367
14:00+27юв11370 0.0 10172094
17:00+27юв22380 0.0 10172142
20:00+22ю26690 0.0 1017161
9 июля, сб
сб923:00+17ююз23840 0.0 101859
02:00+15юз22830 0.0 101841
05:00+15юз23845 0.0 101847
08:00+21ююз24641 0.0 1018286
11:00+26ююз33475 0.0 10181333
14:00+28ююв323913 0.0 10172340
17:00+26ююв334649 0.0 1016881
20:00+22ю376728 0.0 1016247
10 июля, вс
вс1023:00+18ююз368117 0.0 1017122
02:00+16юз25846 0.0 101877
05:00+15ююз24845 0.0 101874
08:00+21ююз356210 0.0 1018296
11:00+26ю334420 0.0 10181422
14:00+27ююв4238100 0.0 10182267
17:00+26ююв434377 0.0 10181458
20:00+22ююв266511 0.0 1019211
11 июля, пн
пн1123:00+17ю22835 0.0 102036
02:00+16ююз22856 0.0 102025
05:00+15юз22855 0.0 102119
08:00+21ю236370 0.0 1021273
11:00+26ююз3442100 0.0 10211762
14:00+27ю333899 0.0 10212395
17:00+25ююв445082 0.0 1021739
20:00+22ююв256981 0.0 1021159